[[{"header":{"parameterUnit":"m.s-1","parameterCategory":1,"la1":30.2992,"la2":30.254,"lo1":-89.0895,"lo2":-89.0443,"dy":0.0025,"dx":0.0025,"nx":19,"ny":19,"refTime":"2026-03-22T09:00:00:Z","depth":0,"parameterNumber":2,"parameterNumberName":"U-component_of_WINDS"},"data":[0,0,0,2.8506,2.8508,2.8622,2.8623,2.8765,2.8766,0,0,0,0,0,0,0,0,0,0,0,2.847,2.8471,2.8506,2.8508,2.8622,2.8623,2.8765,2.8766,0,0,0,0,0,0,0,0,0,0,0,2.847,2.8471,2.8472,2.8509,2.8622,2.8623,2.8765,2.868,0,0,0,0,0,0,0,0,0,0,2.857,2.8535,2.847,2.8472,2.851,2.8622,2.8623,2.8676,2.8685,2.8712,0,2.8736,0,2.8753,2.8776,2.8776,0,0,0,2.851,2.8527,2.856,2.8472,2.8511,2.8622,2.8571,2.8681,2.8692,2.8725,2.8738,2.8743,2.8756,2.8777,2.8777,2.8927,2.8927,0,0,2.8504,2.8489,2.8552,2.8566,2.8548,2.8568,2.8575,2.8688,2.8701,2.8738,2.8746,2.8758,2.8778,2.8779,2.8926,2.8927,0,0,0,2.8485,2.8485,2.8515,2.856,2.8581,2.8571,2.8579,2.8696,2.8707,2.8748,2.876,2.8778,2.878,2.8925,2.8926,2.8942,0,0,0,2.8481,2.8474,2.8512,2.8504,2.8579,2.864,2.8585,2.8699,2.8712,2.8759,2.8778,2.8782,2.8925,2.8926,2.894,2.8951,0,0,0,2.8463,2.8472,2.8487,2.8503,2.8552,2.8638,2.8656,2.8702,2.8719,2.8776,2.8782,2.8924,2.8926,2.8938,2.8949,2.8986,0,0,0,2.844,2.85,2.8487,2.8559,2.8551,2.8647,2.8655,2.8728,2.8779,2.8779,2.8925,2.8926,2.8938,2.8947,2.8984,2.9013,2.9024,0,0,2.8508,2.8508,2.8551,2.8543,2.8638,2.8631,2.8729,2.8789,2.8809,2.8886,2.889,2.8941,2.8949,2.8985,2.9094,2.9103,0,0,0,2.8568,2.8598,2.8627,2.8674,2.8722,2.8764,2.8811,2.8833,2.89,2.8845,2.8965,2.897,2.8992,2.9007,2.9014,2.9034,2.8933,2.8933,2.8932,2.8642,2.8663,2.8735,2.877,2.8816,2.8864,2.8903,2.8942,2.895,2.8978,2.9001,2.9064,2.9081,2.9086,2.9106,2.9019,2.9019,2.9019,2.9019,2.8742,2.8788,2.8797,2.8871,2.8892,2.8955,2.9004,2.9007,2.9068,2.9049,2.9069,2.9045,2.9095,2.9114,2.9021,2.902,2.902,2.902,2.902,2.8791,2.8817,2.8843,2.8914,2.8966,2.9,2.9058,2.9076,2.9094,2.9114,2.914,2.9139,2.914,2.9125,2.9126,2.9126,2.9126,2.9126,2.9126,2.8831,2.8861,2.8907,2.8963,2.8995,2.9041,2.909,2.9123,2.9164,2.9173,2.9174,2.9178,2.9097,2.9075,2.913,2.9129,2.9129,2.9128,2.9128,2.8922,2.8904,2.8976,2.9009,2.9076,2.9126,2.9149,2.9215,2.9245,2.9273,2.9274,2.9211,2.9212,2.9206,2.9188,2.9269,2.9269,2.9269,2.9269,2.8962,2.8965,2.9042,2.9093,2.9146,2.9174,2.9254,2.9293,2.9331,2.9351,2.9343,2.9321,2.9314,2.932,2.9311,2.9295,2.9401,2.9401,2.9401,2.9018,2.9027,2.9091,2.9128,2.9182,2.9228,2.9303,2.9362,2.9402,2.9407,2.9367,2.9361,2.9327,2.9315,2.9317,2.9304,2.9274,0,0]},{"header":{"parameterUnit":"m.s-1","parameterCategory":1,"la1":30.2992,"la2":30.254,"lo1":-89.0895,"lo2":-89.0443,"dy":0.0025,"dx":0.0025,"nx":19,"ny":19,"refTime":"2026-03-22T09:00:00:Z","depth":0,"parameterNumber":3,"parameterNumberName":"V-component_of_WINDS"},"data":[0,0,0,2.8372,2.8374,2.8443,2.8443,2.8529,2.8529,0,0,0,0,0,0,0,0,0,0,0,2.8351,2.8352,2.8372,2.8374,2.8443,2.8443,2.8529,2.8529,0,0,0,0,0,0,0,0,0,0,0,2.8351,2.8352,2.8352,2.8374,2.8443,2.8443,2.8528,2.8477,0,0,0,0,0,0,0,0,0,0,2.841,2.8391,2.8352,2.8352,2.8374,2.8443,2.8443,2.8474,2.848,2.8497,0,2.8512,0,2.8522,2.8535,2.8535,0,0,0,2.8373,2.8386,2.8405,2.8353,2.8375,2.8443,2.8412,2.8478,2.8484,2.8504,2.8514,2.8517,2.8524,2.8536,2.8536,2.8636,2.8637,0,0,2.837,2.8363,2.8401,2.8409,2.84,2.8409,2.8414,2.8481,2.8491,2.8514,2.8519,2.8525,2.8536,2.8537,2.8636,2.8637,0,0,0,2.8359,2.836,2.8378,2.8406,2.8419,2.8411,2.8416,2.8488,2.8494,2.852,2.8526,2.8537,2.8538,2.8635,2.8636,2.8655,0,0,0,2.8357,2.8354,2.8376,2.8373,2.8417,2.8454,2.8421,2.849,2.8497,2.8526,2.8537,2.8539,2.8635,2.8636,2.8653,2.8664,0,0,0,2.8347,2.8353,2.8363,2.8372,2.8402,2.8453,2.8464,2.8491,2.8501,2.8535,2.8539,2.8635,2.8636,2.8652,2.8662,2.869,0,0,0,2.8334,2.8377,2.8363,2.8414,2.8402,2.8465,2.8463,2.851,2.8542,2.8537,2.8635,2.8636,2.8651,2.866,2.8688,2.8712,2.8721,0,0,2.8384,2.8383,2.8413,2.8403,2.8467,2.8455,2.8521,2.8555,2.8563,2.8611,2.8614,2.8654,2.8662,2.8689,2.8776,2.8783,0,0,0,2.8427,2.8449,2.8467,2.8498,2.8526,2.8551,2.8576,2.8589,2.863,2.8587,2.8671,2.8676,2.8692,2.8704,2.871,2.8725,2.8641,2.8641,2.8641,2.8488,2.8498,2.8549,2.8568,2.8598,2.8624,2.8649,2.867,2.867,2.8689,2.8704,2.8755,2.8769,2.8773,2.8789,2.8717,2.8717,2.8717,2.8717,2.8563,2.8596,2.8597,2.8647,2.8657,2.8698,2.8725,2.8724,2.8763,2.8745,2.876,2.8739,2.8781,2.8795,2.8718,2.8718,2.8718,2.8718,2.8718,2.8605,2.8622,2.8638,2.8685,2.8719,2.8736,2.8775,2.8782,2.8788,2.8803,2.882,2.8819,2.882,2.8811,2.8811,2.8811,2.8811,2.8811,2.8811,2.8641,2.8659,2.8692,2.8727,2.8748,2.8777,2.8804,2.8825,2.885,2.8852,2.8852,2.885,2.8784,2.8767,2.8814,2.8814,2.8813,2.8813,2.8813,2.8714,2.8699,2.8749,2.8771,2.8813,2.8847,2.8857,2.8899,2.8916,2.8935,2.8931,2.8881,2.8879,2.8874,2.886,2.8928,2.8928,2.8928,2.8928,2.8749,2.875,2.8804,2.8838,2.8872,2.8886,2.8942,2.8964,2.8984,2.8996,2.8987,2.8969,2.8964,2.8965,2.8958,2.8946,2.9034,2.9034,2.9034,2.8795,2.8799,2.8846,2.8867,2.8901,2.893,2.8983,2.9021,2.904,2.9039,2.9005,2.9001,2.8972,2.8963,2.896,2.8949,2.8926,0,0]}]]